Regional Weather Roundup
Issued by NWS

Home | Current Version | Previous Version | Graphics & Text | Print | Product List | Glossary On
Versions: 1 2 3 4 5 6 7 8 9 10 11 12 13 14 15 16 17 18 19 20 21 22 23 24 25 26 27 28 29 30 31 32 33 34 35 36 37 38 39 40 41 42 43 44 45 46 47 48 49 50
000
ASUS43 KOAX 110002
RWRNE

WEATHER ROUNDUP FOR NEBRASKA
NATIONAL WEATHER SERVICE OMAHA NE
700 PM CDT THU JUL 10 2014

NOTES: SATELLITE DATA IS BEING USED TO AUGMENT CLOUD COVER ABOVE
       12000 FEET.
       "FAIR" INDICATES FEW OR NO CLOUDS BELOW 12,000 FEET WITH NO
       SIGNIFICANT WEATHER AND/OR OBSTRUCTIONS TO VISIBILITY.

  * THESE STATIONS DO NOT REPORT WEATHER SUCH AS RAIN...SNOW OR FOG.

NEZ001>004-019>022-054>056-110100-
NEBRASKA PANHANDLE

CITY           SKY/WX    TMP DP  RH WIND       PRES   REMARKS
SCOTTSBLUFF    LGT RAIN  75  61  61 E23       29.88F
6HR MIN TEMP:  75; 6HR MAX TEMP:  97; 6HR PCP: TRACE;

ALLIANCE       LGT RAIN  75  60  59 W18       29.92R
6HR MIN TEMP:  75; 6HR MAX TEMP:  98; 6HR PCP: TRACE;

CHADRON        MOSUNNY   87  58  37 NE14      29.85R
6HR MIN TEMP:  87; 6HR MAX TEMP:  94;

KIMBALL        CLOUDY    79  57  46 SE10      29.94F
SIDNEY         CLOUDY    84  53  34 NE3       29.93S
6HR MIN TEMP:  81; 6HR MAX TEMP:  97; 6HR PCP: TRACE;

$$

NEZ057>060-069>072-079>082-110100-
SOUTHWEST NEBRASKA

CITY           SKY/WX    TMP DP  RH WIND       PRES   REMARKS
NORTH PLATTE   SUNNY     87  64  46 S16G23    29.86F
6HR MIN TEMP:  82; 6HR MAX TEMP:  89;

IMPERIAL       SUNNY     91  62  37 SE18      29.87F HX  91
6HR MIN TEMP:  84; 6HR MAX TEMP:  94;

LEXINGTON      SUNNY     85  68  55 SE12      29.90S
MCCOOK         SUNNY     88  66  48 SE12G21   29.87F HX  90
6HR MIN TEMP:  84; 6HR MAX TEMP:  90;

OGALLALA       SUNNY     87  60  40 S8        29.87S
$$

NEZ005>010-023>029-035>040-094-110100-
NORTH CENTRAL NEBRASKA

CITY           SKY/WX    TMP DP  RH WIND       PRES   REMARKS
VALENTINE      PTSUNNY   89  65  44 S15       29.81F HX  91
6HR MIN TEMP:  82; 6HR MAX TEMP:  93;

AINSWORTH      MOSUNNY   84  67  56 SE18      29.85F
BROKEN BOW     SUNNY     84  68  58 SE18G28   29.89F
6HR MIN TEMP:  80; 6HR MAX TEMP:  85;

O`NEILL        MOSUNNY   82  65  55 S20G25    29.89F
ORD            SUNNY     82  66  58 SE17G26   29.88F
6HR MIN TEMP:  77; 6HR MAX TEMP:  84;

$$

NEZ041-046>049-061>064-073>077-083>087-110100-
SOUTH CENTRAL NEBRASKA

CITY           SKY/WX    TMP DP  RH WIND       PRES   REMARKS
GRAND ISLAND   MOSUNNY   83  66  56 SE14      29.93F
6HR MIN TEMP:  78; 6HR MAX TEMP:  84;

AURORA         MOSUNNY   83  69  62 SE14      29.93S
HASTINGS       SUNNY     83  64  52 SE15G22   29.92S
6HR MIN TEMP:  80; 6HR MAX TEMP:  86;

HEBRON         SUNNY     85  63  47 SE14G21   29.93F
HOLDREGE       SUNNY     84  65  51 SE15G21   29.91S
KEARNEY *      SUNNY     84  66  54 S15G21    29.91F
YORK           MOSUNNY   82  66  57 SE14      29.94S
$$

NEZ011>018-030>034-042>045-110100-
NORTHEAST NEBRASKA

CITY           SKY/WX    TMP DP  RH WIND       PRES   REMARKS
NORFOLK        MOSUNNY   82  67  60 S14G24    29.92S
6HR MIN TEMP:  81; 6HR MAX TEMP:  85;

ALBION         MOSUNNY   82  66  59 S14G20    29.92F
BLAIR          MOSUNNY   82  65  58 SE13G24   29.97S
FREMONT        SUNNY     85  65  51 SE12G22   29.96S
TEKAMAH        MOSUNNY   84  65  52 SE18G25   29.94F
6HR MIN TEMP:  84; 6HR MAX TEMP:  88;

WAYNE          MOSUNNY   85  66  53 S17       29.93S
$$

NEZ050>053-065>068-078-088>093-110100-
SOUTHEAST NEBRASKA

CITY           SKY/WX    TMP DP  RH WIND       PRES   REMARKS
LINCOLN        SUNNY     85  65  51 S16G24    29.95S
6HR MIN TEMP:  83; 6HR MAX TEMP:  88;

OMAHA EPPLEY   PTSUNNY   83  65  54 S21G26    29.97S
6HR MIN TEMP:  82; 6HR MAX TEMP:  85;

BEATRICE       SUNNY     81  64  56 SE12      29.96S
FALLS CITY     MOSUNNY   83  67  58 SE15G21   29.98F
6HR MIN TEMP:  82; 6HR MAX TEMP:  86;

NEBRASKA CITY  MOSUNNY   80  66  60 SE15G21   29.99S
PLATTSMOUTH    SUNNY     82  65  57 SE8G18    29.99R
$$

NEZ044-045-051>053-067-110100-
OMAHA AREA

CITY           SKY/WX    TMP DP  RH WIND       PRES   REMARKS
OMAHA EPPLEY   PTSUNNY   83  65  54 S21G26    29.97S
6HR MIN TEMP:  82; 6HR MAX TEMP:  85;

BLAIR          MOSUNNY   82  65  58 SE13G24   29.97S
FREMONT        SUNNY     85  65  51 SE12G22   29.96S
MILLARD        MOSUNNY   83  68  61 SE15      29.96S
OFFUTT AFB     MOSUNNY   83  69  63 SE18      29.97S
PLATTSMOUTH    SUNNY     82  65  57 SE8G18    29.99R
WAHOO          FAIR      84  64  50 SE15G22   29.96R
$$



USA.gov is the U.S. government's official web portal to all federal, state and local government web resources and services.